TimeEST,TemperatureF,Dew PointF,Humidity,Sea Level PressureIn,VisibilityMPH,Wind Direction,Wind SpeedMPH,Gust SpeedMPH,PrecipitationIn,Events,Conditions,WindDirDegrees,DateUTC
12:56 AM,48.0,43.0,83,30.29,10.0,NNE,9.2,-,N/A,,Clear,30,2012-11-17 05:56:00
1:56 AM,48.0,42.1,80,30.29,10.0,ENE,8.1,-,N/A,,Clear,60,2012-11-17 06:56:00
2:56 AM,46.9,42.1,83,30.29,10.0,NNE,10.4,-,N/A,,Clear,30,2012-11-17 07:56:00
3:56 AM,45.0,39.9,82,30.29,10.0,ENE,8.1,-,N/A,,Clear,60,2012-11-17 08:56:00
4:56 AM,44.1,39.0,82,30.29,10.0,NE,10.4,-,N/A,,Clear,40,2012-11-17 09:56:00
5:56 AM,44.1,39.0,82,30.31,10.0,NE,11.5,-,N/A,,Clear,40,2012-11-17 10:56:00
6:56 AM,43.0,37.9,82,30.32,10.0,NNE,8.1,-,N/A,,Clear,20,2012-11-17 11:56:00
7:56 AM,43.0,37.9,82,30.34,10.0,NNE,6.9,-,N/A,,Clear,30,2012-11-17 12:56:00
8:56 AM,46.0,39.0,76,30.35,10.0,NE,10.4,18.4,N/A,,Clear,40,2012-11-17 13:56:00
9:56 AM,50.0,41.0,71,30.35,10.0,NNE,10.4,-,N/A,,Clear,30,2012-11-17 14:56:00
10:56 AM,52.0,41.0,66,30.34,10.0,NNE,12.7,-,N/A,,Clear,20,2012-11-17 15:56:00
11:56 AM,55.0,41.0,59,30.33,10.0,NNE,10.4,-,N/A,,Clear,30,2012-11-17 16:56:00
12:56 PM,57.9,41.0,53,30.32,10.0,NNE,13.8,-,N/A,,Clear,30,2012-11-17 17:56:00
1:56 PM,57.0,41.0,55,30.30,10.0,NNE,15.0,-,N/A,,Clear,30,2012-11-17 18:56:00
2:56 PM,57.9,42.1,56,30.29,10.0,NNE,10.4,-,N/A,,Clear,20,2012-11-17 19:56:00
3:56 PM,55.9,43.0,62,30.30,10.0,NNE,8.1,-,N/A,,Clear,20,2012-11-17 20:56:00
4:56 PM,54.0,42.1,64,30.32,10.0,NNE,11.5,-,N/A,,Clear,30,2012-11-17 21:56:00
5:22 PM,53.6,42.8,67,30.32,10.0,NNE,8.1,-,N/A,,Mostly Cloudy,20,2012-11-17 22:22:00
5:56 PM,54.0,44.1,69,30.32,10.0,NNE,15.0,-,N/A,,Overcast,30,2012-11-17 22:56:00
6:56 PM,53.1,45.0,74,30.33,10.0,NE,10.4,-,N/A,,Overcast,40,2012-11-17 23:56:00
7:56 PM,53.1,45.0,74,30.33,10.0,NNE,10.4,-,N/A,,Overcast,20,2012-11-18 00:56:00
8:56 PM,53.1,45.0,74,30.32,10.0,NNE,9.2,-,N/A,,Overcast,30,2012-11-18 01:56:00
9:56 PM,54.0,45.0,72,30.32,10.0,NNE,8.1,-,N/A,,Overcast,30,2012-11-18 02:56:00
10:56 PM,54.0,45.0,72,30.32,10.0,NNE,10.4,-,N/A,,Overcast,30,2012-11-18 03:56:00
11:42 PM,53.6,44.6,72,30.30,10.0,NNE,10.4,-,N/A,,Overcast,20,2012-11-18 04:42:00
11:56 PM,53.1,45.0,74,30.30,10.0,NNE,11.5,-,N/A,,Mostly Cloudy,20,2012-11-18 04:56:00